TimeEDT,TemperatureF,Dew PointF,Humidity,Sea Level PressureIn,VisibilityMPH,Wind Direction,Wind SpeedMPH,Gust SpeedMPH,PrecipitationIn,Events,Conditions,WindDirDegrees,DateUTC
12:53 AM,70.0,66.0,87,29.78,7.0,Calm,Calm,-,N/A,,Mostly Cloudy,0,2013-08-23 04:53:00
1:53 AM,70.0,66.0,87,29.78,6.0,Calm,Calm,-,N/A,,Overcast,0,2013-08-23 05:53:00
2:53 AM,72.0,64.9,78,29.80,10.0,Calm,Calm,-,N/A,,Overcast,0,2013-08-23 06:53:00
3:53 AM,71.1,63.0,75,29.81,10.0,NW,4.6,-,N/A,,Scattered Clouds,320,2013-08-23 07:53:00
4:53 AM,66.0,62.1,87,29.82,10.0,Calm,Calm,-,N/A,,Clear,0,2013-08-23 08:53:00
5:53 AM,66.0,62.1,87,29.85,10.0,Calm,Calm,-,N/A,,Clear,0,2013-08-23 09:53:00
7:53 AM,68.0,55.9,65,29.91,10.0,Variable,6.9,-,N/A,,Clear,0,2013-08-23 11:53:00
8:53 AM,69.1,55.0,61,29.92,10.0,Variable,5.8,-,N/A,,Clear,0,2013-08-23 12:53:00
9:53 AM,71.1,54.0,55,29.94,10.0,Variable,6.9,-,N/A,,Clear,0,2013-08-23 13:53:00
10:53 AM,73.0,54.0,51,29.95,10.0,Variable,5.8,-,N/A,,Clear,0,2013-08-23 14:53:00
11:53 AM,75.9,55.0,48,29.96,10.0,Calm,Calm,-,N/A,,Partly Cloudy,0,2013-08-23 15:53:00
12:53 PM,75.9,52.0,43,29.95,10.0,Variable,4.6,17.3,N/A,,Clear,0,2013-08-23 16:53:00
1:53 PM,77.0,51.1,40,29.96,10.0,Variable,6.9,18.4,N/A,,Clear,0,2013-08-23 17:53:00
2:53 PM,77.0,50.0,39,29.97,10.0,Variable,4.6,-,N/A,,Clear,0,2013-08-23 18:53:00
3:53 PM,78.1,52.0,40,29.97,10.0,Variable,5.8,-,N/A,,Partly Cloudy,0,2013-08-23 19:53:00
4:53 PM,77.0,51.1,40,29.98,10.0,Variable,5.8,-,N/A,,Clear,0,2013-08-23 20:53:00
5:53 PM,75.0,50.0,41,30.01,10.0,Variable,4.6,-,N/A,,Partly Cloudy,0,2013-08-23 21:53:00
6:53 PM,71.1,48.0,44,30.03,10.0,Calm,Calm,-,N/A,,Clear,0,2013-08-23 22:53:00
7:53 PM,63.0,52.0,67,30.06,10.0,Calm,Calm,-,N/A,,Clear,0,2013-08-23 23:53:00
8:53 PM,64.0,48.9,58,30.09,10.0,Calm,Calm,-,N/A,,Clear,0,2013-08-24 00:53:00
9:53 PM,63.0,48.0,58,30.11,10.0,Calm,Calm,-,N/A,,Clear,0,2013-08-24 01:53:00
10:53 PM,61.0,48.0,62,30.13,10.0,Calm,Calm,-,N/A,,Clear,0,2013-08-24 02:53:00
11:53 PM,55.0,48.9,80,30.16,10.0,Calm,Calm,-,N/A,,Clear,0,2013-08-24 03:53:00